Hourly Data Report for January 01, 2018

All times are specified in Local Standard Time (LST). Add 1 hour to adjust for Daylight Saving Time where and when it is observed.

MOOSE JAW CS
SASKATCHEWAN

50°19'54.050" N
105°32'15.030" W
577.00 m
4015322
71539
ZMJ

Download Data

Hourly Data (January 2018)
Hourly Data Report for January 1, 2018
Temp Definition
°C
Dew Point Temp Definition
°C
Rel Hum Definition
%
Wind Dir Definition
10's deg

Wind Spd Definition
km/h
Visibility Definition
km
Stn Press Definition
kPa
Hmdx Definition


Wind Chill Definition


Weather Definition


TIME
00:00 -32.1 -36.0 68 18 2   97.11   -34 LegendNANA
01:00 -31.6 -35.4 69 18 3   97.09   -35 LegendNANA
02:00 -30.1 -33.6 72 19 9   97.05   -39 LegendNANA
03:00 -31.0 -34.9 68 13 2   97.03   -33 LegendNANA
04:00 -31.2 -34.8 71 14 8   96.96   -39 LegendNANA
05:00 -31.4 -35.2 69 14 9   96.91   -40 LegendNANA
06:00 -32.0 -36.0 68 11 4   96.87   -37 LegendNANA
07:00 -32.5 -36.3 69 16 6   96.83   -39 LegendNANA
08:00 -28.8 -32.4 71 17 10   96.78   -38 LegendNANA
09:00 -28.8 -32.8 68 17 7   96.79   -36 LegendNANA
10:00 -26.4 -30.8 66 17 4   96.80   -31 LegendNANA
11:00 -23.4 -28.5 63   0   96.77     LegendNANA
12:00 -20.6 -28.3 50 22 14   96.64   -29 LegendNANA
13:00 -20.0 -28.2 48 17 6   96.60   -25 LegendNANA
14:00 -20.3 -27.6 52 23 16   96.45   -30 LegendNANA
15:00 -19.2 -26.0 55 23 16   96.43   -28 LegendNANA
16:00 -19.8 -26.1 57 25 12   96.36   -28 LegendNANA
17:00 -20.3 -26.1 60 20 14   96.24   -29 LegendNANA
18:00 -21.2 -26.1 65 24 17   96.18   -31 LegendNANA
19:00 -22.2 -26.4 69 19 5   96.08   -27 LegendNANA
20:00 -21.5 -26.3 65 27 15   95.95   -31 LegendNANA
21:00 -21.8 -26.1 69 26 13   95.91   -31 LegendNANA
22:00 -21.1 -25.3 69 24 24   95.73   -33 LegendNANA
23:00 -20.6 -24.5 71 23 17   95.64   -30 LegendNANA

Notes on Data Quality.

Legend

  • E = Estimated
  • M = Missing
  • NA = Not Available
  • ‡ = Partner data that is not subject to review by the National Climate Archives
Date modified: